Waarnemingen

Advertentie
Mijn weer
Civitavecchia, Italië (16214): temperatuur & dauwpunt: 18.02.2018 13:00:00 - 24.02.2018 13:00:00 (CET)Civitavecchia, Italië (16214): windsnelheid: 18.02.2018 13:00:00 - 24.02.2018 13:00:00 (CET)Civitavecchia, Italië (16214): windrichting: 18.02.2018 13:00:00 - 24.02.2018 13:00:00 (CET)Civitavecchia, Italië (16214): luchtdruk: 18.02.2018 13:00:00 - 24.02.2018 13:00:00 (CET)Civitavecchia, Italië (16214): zicht: 18.02.2018 13:00:00 - 24.02.2018 13:00:00 (CET)Civitavecchia, Italië (16214): Zonneschijnduur: 18.02.2018 13:00:00 - 24.02.2018 13:00:00 (CET)
Datum & Tijd tt [°C] td [°C] ff [km/u] ff [kn] dd ppp [hPa] vv [km] sd [min]
24.02.2018 13:00:00 11,6 8,7 13 7 Z 1004,6 25 0
24.02.2018 12:00:00 - - - - - - - -
24.02.2018 11:00:00 - - - - - - - -
24.02.2018 10:00:00 10,9 9,2 9 5 O 1003,1 4,0 0
24.02.2018 09:00:00 - - - - - - - -
24.02.2018 08:00:00 - - - - - - - -
24.02.2018 07:00:00 9,9 8,7 9 5 O 1000,8 15 0
24.02.2018 06:00:00 - - - - - - - -
24.02.2018 05:00:00 - - - - - - - -
24.02.2018 04:00:00 10,1 8,4 8 4 O 999,1 - 0
24.02.2018 03:00:00 - - - - - - - -
24.02.2018 02:00:00 - - - - - - - -
24.02.2018 01:00:00 9,9 8,2 5 3 OZO 999,3 - 0
24.02.2018 00:00:00 - - - - - - - -
23.02.2018 23:00:00 - - - - - - - -
23.02.2018 22:00:00 11,1 7,7 13 7 O 998,2 - 0
23.02.2018 21:00:00 - - - - - - - -
23.02.2018 20:00:00 - - - - - - - -
23.02.2018 19:00:00 9,9 7,5 11 6 NO 997,7 8 0
23.02.2018 18:00:00 - - - - - - - -
23.02.2018 17:00:00 - - - - - - - -
23.02.2018 16:00:00 9,4 7,0 9 5 N 998,0 4,0 0
23.02.2018 15:00:00 - - - - - - - -
23.02.2018 14:00:00 - - - - - - - -
23.02.2018 13:00:00 9,2 6,7 15 8 NNW 1001,0 5 0
23.02.2018 12:00:00 - - - - - - - -
23.02.2018 11:00:00 - - - - - - - -
23.02.2018 10:00:00 10,7 5,9 5 3 ONO 1001,3 25 0
23.02.2018 09:00:00 - - - - - - - -
23.02.2018 08:00:00 - - - - - - - -
23.02.2018 07:00:00 8,9 5,5 9 5 O 1000,5 25 0
23.02.2018 06:00:00 - - - - - - - -
23.02.2018 05:00:00 - - - - - - - -
23.02.2018 04:00:00 9,2 6,4 15 8 O 1000,4 - 0
23.02.2018 03:00:00 - - - - - - - -
23.02.2018 02:00:00 - - - - - - - -
23.02.2018 01:00:00 8,9 6,2 21 11 O 1000,3 - 0
23.02.2018 00:00:00 - - - - - - - -
22.02.2018 23:00:00 - - - - - - - -
22.02.2018 22:00:00 7,9 5,8 16 9 O 1000,1 - 0
22.02.2018 21:00:00 - - - - - - - -
22.02.2018 20:00:00 - - - - - - - -
22.02.2018 19:00:00 8,0 4,9 18 10 O 999,3 8 0
22.02.2018 18:00:00 - - - - - - - -
22.02.2018 17:00:00 - - - - - - - -
22.02.2018 16:00:00 7,2 4,9 11 6 O 1001,2 4,0 0
22.02.2018 15:00:00 - - - - - - - -
22.02.2018 14:00:00 - - - - - - - -
22.02.2018 13:00:00 8,6 5,4 15 8 OZO 1002,1 10 0
22.02.2018 12:00:00 - - - - - - - -
22.02.2018 11:00:00 - - - - - - - -
22.02.2018 10:00:00 8,8 3,9 11 6 O 1001,7 20 0
22.02.2018 09:00:00 - - - - - - - -
22.02.2018 08:00:00 - - - - - - - -
22.02.2018 07:00:00 6,5 1,6 9 5 O 1001,2 25 0
22.02.2018 06:00:00 - - - - - - - -
22.02.2018 05:00:00 - - - - - - - -
22.02.2018 04:00:00 7,1 1,1 2 1 ZO 1001,0 - 0
22.02.2018 03:00:00 - - - - - - - -
22.02.2018 02:00:00 - - - - - - - -
22.02.2018 01:00:00 6,7 0,8 11 6 NO 1001,3 - 0
22.02.2018 00:00:00 - - - - - - - -
21.02.2018 23:00:00 - - - - - - - -
21.02.2018 22:00:00 7,9 0,9 13 7 NO 1001,7 - 0
21.02.2018 21:00:00 - - - - - - - -
21.02.2018 20:00:00 - - - - - - - -
21.02.2018 19:00:00 8,2 0,1 16 9 NO 1001,1 20 0
21.02.2018 18:00:00 - - - - - - - -
21.02.2018 17:00:00 - - - - - - - -
21.02.2018 16:00:00 11,2 0,4 21 11 N 1000,7 20 0
21.02.2018 15:00:00 - - - - - - - -
21.02.2018 14:00:00 - - - - - - - -
21.02.2018 13:00:00 11,2 0,6 9 5 N 1001,7 30 0
21.02.2018 12:00:00 - - - - - - - -
21.02.2018 11:00:00 - - - - - - - -
21.02.2018 10:00:00 8,6 0,0 18 10 NNO 1001,8 30 0
21.02.2018 09:00:00 - - - - - - - -
21.02.2018 08:00:00 - - - - - - - -
21.02.2018 07:00:00 7,8 -0,7 15 8 NO 1000,8 20 0
21.02.2018 06:00:00 - - - - - - - -
21.02.2018 05:00:00 - - - - - - - -
21.02.2018 04:00:00 5,0 0,4 2 1 NO 1001,8 - 0
21.02.2018 03:00:00 - - - - - - - -
21.02.2018 02:00:00 - - - - - - - -
21.02.2018 01:00:00 5,7 -0,8 2 1 O 1002,7 - 0
21.02.2018 00:00:00 - - - - - - - -
20.02.2018 23:00:00 - - - - - - - -
20.02.2018 22:00:00 7,1 -1,2 13 7 NNO 1003,3 - 0
20.02.2018 21:00:00 - - - - - - - -
20.02.2018 20:00:00 - - - - - - - -
20.02.2018 19:00:00 7,6 2,4 5 3 NNO 1003,8 18 0
20.02.2018 18:00:00 - - - - - - - -
20.02.2018 17:00:00 - - - - - - - -
20.02.2018 16:00:00 11,0 3,8 18 10 WNW 1004,1 10 60
20.02.2018 15:00:00 - - - - - - - -
20.02.2018 14:00:00 - - - - - - - -
20.02.2018 13:00:00 11,3 3,0 13 7 WNW 1005,9 18 36
20.02.2018 12:00:00 - - - - - - - -
20.02.2018 11:00:00 - - - - - - - -
20.02.2018 10:00:00 9,5 2,0 5 3 WZW 1007,6 18 41
20.02.2018 09:00:00 - - - - - - - -
20.02.2018 08:00:00 - - - - - - - -
20.02.2018 07:00:00 5,1 1,9 5 3 N 1008,0 15 0
20.02.2018 06:00:00 - - - - - - - -
20.02.2018 05:00:00 - - - - - - - -
20.02.2018 04:00:00 6,9 3,4 5 3 N 1008,2 - 0
20.02.2018 03:00:00 - - - - - - - -
20.02.2018 02:00:00 - - - - - - - -
20.02.2018 01:00:00 8,2 3,4 5 3 N 1009,6 - 0
20.02.2018 00:00:00 - - - - - - - -
19.02.2018 23:00:00 - - - - - - - -
19.02.2018 22:00:00 8,3 2,7 4 2 ONO 1010,3 - 0
19.02.2018 21:00:00 - - - - - - - -
19.02.2018 20:00:00 - - - - - - - -
19.02.2018 19:00:00 10,2 3,3 8 4 N 1010,4 15 0
19.02.2018 18:00:00 - - - - - - - -
19.02.2018 17:00:00 - - - - - - - -
19.02.2018 16:00:00 13,0 5,6 18 10 NNW 1010,6 40 58
19.02.2018 15:00:00 - - - - - - - -
19.02.2018 14:00:00 - - - - - - - -
19.02.2018 13:00:00 12,1 6,1 8 4 ZW 1011,9 40 0
19.02.2018 12:00:00 - - - - - - - -
19.02.2018 11:00:00 - - - - - - - -
19.02.2018 10:00:00 11,0 5,6 8 4 WNW 1012,6 40 0
19.02.2018 09:00:00 - - - - - - - -
19.02.2018 08:00:00 - - - - - - - -
19.02.2018 07:00:00 9,3 4,9 9 5 NO 1012,0 15 0
19.02.2018 06:00:00 - - - - - - - -
19.02.2018 05:00:00 - - - - - - - -
19.02.2018 04:00:00 9,6 6,8 8 4 O 1011,8 - 0
19.02.2018 03:00:00 - - - - - - - -
19.02.2018 02:00:00 - - - - - - - -
19.02.2018 01:00:00 10,2 7,1 9 5 O 1012,9 - 0
19.02.2018 00:00:00 - - - - - - - -
18.02.2018 23:00:00 - - - - - - - -
18.02.2018 22:00:00 10,4 8,2 13 7 O 1013,6 - 0
18.02.2018 21:00:00 - - - - - - - -
18.02.2018 20:00:00 - - - - - - - -
18.02.2018 19:00:00 12,5 9,0 8 4 ZZW 1013,6 - 0
18.02.2018 18:00:00 - - - - - - - -
18.02.2018 17:00:00 - - - - - - - -
18.02.2018 16:00:00 14,6 10,6 9 5 OZO 1012,7 - 48
18.02.2018 15:00:00 - - - - - - - -
18.02.2018 14:00:00 - - - - - - - -
18.02.2018 13:00:00 13,4 9,2 26 14 ZZW 1014,3 - 18

tt = temperatuur
td = dauwpunt
ff = windsnelheid
dd = windrichting
ppp = luchtdruk
vv = zicht
sd = Zonneschijnduur

Weerstations in de omgeving